Location: Newark
(50.0306°N, 2.3272°E)
Time: 20:31:16
(UTC+00:00)

Vanguard 1 - Pass Details

Date: 14 December 2019
Orbit: 650 x 3833 km, 34.2° (Epoch: 28 January)

Event Time Altitude Azimuth Distance (km) Brightness Sun altitude
Rises 06:41:49 0° 264° (W) 7,966 14.2 -9.0°
Reaches altitude 10° 06:47:43 10° 260° (W) 6,923 13.9 -8.2°
Maximum altitude 07:07:57 44° 198° (SSW) 3,907 13.2 -5.3°
Drops below altitude 10° 07:21:34 10° 132° (SE) 4,775 15.4 -3.5°
Sets 07:24:46 0° 126° (SE) 5,411 17.2 -3.0°
